[[{"header":{"parameterUnit":"m.s-1","parameterCategory":1,"la1":30.2991,"la2":30.254,"lo1":-89.0895,"lo2":-89.0444,"dy":0.0017,"dx":0.0017,"nx":28,"ny":28,"refTime":"2025-09-04T03:00:00:Z","depth":0,"parameterNumber":2,"parameterNumberName":"U-component_of_WINDS"},"data":[0,0,0,0,0,0,0,0,0,0,0,0,0,0,0,0,0,0,0,0,0,0,0,0,0,0,0,0,0,0,0,0,0,0,0,0,0,0,0,0,0,0,0,0,0,0,0,0,0,0,0,0,0,0,0,0,0,0,0.3838,0.3839,0,0.3877,0.3877,0.3877,0.3909,0.3909,0.3909,0.391,0.395,0.3951,0.3952,0,0,0,0,0,0,0,0,0,0,0,0,0,0.3793,0.3794,0.3838,0.3839,0.3839,0.3876,0.3877,0.3878,0.3909,0.3909,0.3909,0.391,0.395,0.3951,0.3952,0,0,0,0,0,0,0,0,0,0,0,0,0,0.382,0.3794,0.3838,0.3859,0.3861,0.3876,0.3877,0.3878,0.3908,0.3909,0.3909,0.391,0.395,0.3951,0.3952,0.395,0,0,0.3956,0.3956,0,0,0,0,0,0,0,0,0.3819,0.3822,0.3856,0.3858,0.386,0.3888,0.3876,0.3902,0.3908,0.3891,0.391,0.391,0.3929,0.3932,0.3938,0.3952,0.3953,0.3956,0.3956,0.3957,0.3957,0,0,0,0,0,0,0,0.3817,0.3821,0.3854,0.3856,0.3859,0.3867,0.3871,0.3881,0.3907,0.3892,0.3895,0.3899,0.3931,0.3937,0.394,0.3954,0.3956,0.3957,0.3957,0.3958,0.3967,0.3967,0,0,0,0,0,0,0.3812,0.3819,0.3852,0.3855,0.384,0.3867,0.3872,0.3879,0.3907,0.3912,0.3898,0.39,0.3935,0.3938,0.3941,0.394,0.3957,0.3958,0.3959,0.3967,0.3967,0.3966,0,0,0,0,0,0,0.3811,0.3814,0.3851,0.3837,0.3843,0.3868,0.3875,0.3879,0.3886,0.3911,0.3916,0.39,0.3935,0.3939,0.3947,0.3942,0.3958,0.396,0.3968,0.3967,0.3967,0.3938,0,0,0,0,0,0,0.3809,0.3814,0.3813,0.3837,0.3843,0.3856,0.3874,0.388,0.3888,0.389,0.3914,0.3919,0.3936,0.3945,0.3948,0.3944,0.396,0.3969,0.3968,0.3967,0.394,0.3937,0.3934,0,0,0,0,0,0.3807,0.3804,0.3813,0.3817,0.3843,0.3855,0.3859,0.3879,0.3887,0.3887,0.3903,0.3918,0.3942,0.3946,0.3949,0.3945,0.3969,0.3968,0.3967,0.3941,0.3937,0.3934,0,0,0,0,0,0,0.3779,0.3807,0.3818,0.3821,0.3836,0.3861,0.3861,0.3874,0.3886,0.3888,0.3913,0.3918,0.3923,0.3935,0.3939,0.3945,0.3958,0.3957,0.3936,0.3933,0.393,0.3927,0.3961,0,0,0,0,0,0.3773,0.378,0.3805,0.3806,0.3813,0.3835,0.3842,0.3855,0.3871,0.3878,0.3895,0.391,0.3921,0.3928,0.3939,0.3942,0.3947,0.3941,0.3938,0.3935,0.3935,0.3937,0.3934,0.3963,0.3963,0.3963,0,0,0.3761,0.3777,0.3781,0.3801,0.3813,0.3821,0.384,0.3848,0.3854,0.3879,0.3887,0.39,0.3919,0.3923,0.3927,0.3934,0.3928,0.3934,0.3932,0.3933,0.3935,0.3932,0.393,0.3962,0.3962,0.3963,0,0,0.3743,0.3756,0.3758,0.377,0.3789,0.3804,0.3804,0.3827,0.3837,0.3845,0.3864,0.3872,0.389,0.3903,0.3911,0.3898,0.3912,0.3901,0.3886,0.3887,0.3885,0.3883,0.3878,0.3876,0.39,0.39,0.39,0,0.3726,0.3737,0.3758,0.3764,0.3772,0.3795,0.3797,0.3808,0.383,0.3835,0.3843,0.3866,0.3881,0.3889,0.3885,0.3891,0.3893,0.3898,0.3884,0.3882,0.388,0.3876,0.3874,0.3899,0.3899,0.3899,0.3899,0,0.3715,0.3723,0.3723,0.3742,0.3751,0.3755,0.3776,0.3782,0.3795,0.381,0.3818,0.3836,0.3851,0.3854,0.3867,0.3864,0.3868,0.3879,0.3893,0.3876,0.3872,0.387,0.3896,0.3897,0.3897,0.3898,0,0,0.3681,0.3711,0.3711,0.372,0.3742,0.3748,0.3754,0.3768,0.3773,0.3787,0.3792,0.3807,0.3818,0.3828,0.3842,0.3844,0.3831,0.3855,0.3856,0.385,0.3829,0.382,0.3817,0.3841,0.384,0.384,0.3827,0,0.3666,0.3676,0.3695,0.3699,0.3707,0.3728,0.3733,0.3747,0.3761,0.3769,0.3784,0.3794,0.3808,0.3814,0.3816,0.3832,0.3827,0.3833,0.3846,0.3846,0.384,0.3815,0.3806,0.3792,0.3826,0.3825,0.3825,0,0.3651,0.3663,0.3668,0.3689,0.3693,0.3697,0.3711,0.3719,0.3736,0.3745,0.3756,0.3772,0.3779,0.3791,0.3801,0.3805,0.3811,0.382,0.382,0.3822,0.3835,0.3816,0.3789,0.3786,0.3823,0.3823,0.3823,0,0.3624,0.3642,0.3648,0.3655,0.368,0.3682,0.3692,0.3709,0.3717,0.373,0.3735,0.3748,0.3756,0.3766,0.3785,0.3792,0.3793,0.3807,0.3802,0.3801,0.3801,0.3801,0.3774,0.3805,0.3805,0.3805,0.3805,0,0.3606,0.3609,0.3636,0.3639,0.3643,0.3664,0.3666,0.3679,0.3694,0.37,0.372,0.3725,0.375,0.3759,0.3774,0.378,0.3783,0.3791,0.3795,0.3789,0.3788,0.3794,0.3795,0.3804,0.3805,0.3805,0.3805,0,0.3578,0.3596,0.3604,0.3626,0.3632,0.3633,0.3653,0.3657,0.3672,0.3679,0.3682,0.3705,0.3716,0.3736,0.3753,0.3763,0.3765,0.3772,0.376,0.3762,0.3755,0.3756,0.3731,0.3729,0.3761,0.3761,0.3761,0,0.3565,0.3567,0.359,0.3595,0.3605,0.3613,0.3621,0.3642,0.3649,0.3668,0.3669,0.3682,0.3693,0.3709,0.3727,0.374,0.3748,0.3738,0.375,0.3744,0.3747,0.3747,0.3747,0.3735,0.3735,0.3735,0.3734,0,0.354,0.3549,0.3559,0.3572,0.358,0.3591,0.3604,0.3607,0.3631,0.3638,0.3649,0.3657,0.3674,0.3686,0.3701,0.3713,0.3727,0.373,0.373,0.3724,0.3716,0.372,0.3752,0.3731,0.3731,0.3732,0.3732,0.3732,0.3519,0.3522,0.3538,0.3549,0.356,0.3571,0.3576,0.359,0.36,0.3615,0.3626,0.3636,0.3653,0.3675,0.3685,0.3694,0.3701,0.37,0.37,0.3699,0.3696,0.3715,0.3697,0.3697,0.3697,0.3697,0.3697,0,0.3495,0.3507,0.3516,0.3532,0.354,0.3553,0.3567,0.3573,0.3581,0.3595,0.3605,0.3618,0.3629,0.3648,0.3661,0.3664,0.3671,0.3667,0.3667,0.3669,0.369,0.3689,0.3661,0.3661,0.3661,0.3661,0.3661,0.3661,0.3484,0.3489,0.35,0.3511,0.3523,0.3532,0.3539,0.3549,0.356,0.3573,0.3583,0.3595,0.3611,0.3625,0.3636,0.3641,0.3645,0.3639,0.3646,0.3665,0.3668,0.3671,0.367,0.3639,0.3639,0.3625,0.3625,0.3625]},{"header":{"parameterUnit":"m.s-1","parameterCategory":1,"la1":30.2991,"la2":30.254,"lo1":-89.0895,"lo2":-89.0444,"dy":0.0017,"dx":0.0017,"nx":28,"ny":28,"refTime":"2025-09-04T03:00:00:Z","depth":0,"parameterNumber":3,"parameterNumberName":"V-component_of_WINDS"},"data":[0,0,0,0,0,0,0,0,0,0,0,0,0,0,0,0,0,0,0,0,0,0,0,0,0,0,0,0,0,0,0,0,0,0,0,0,0,0,0,0,0,0,0,0,0,0,0,0,0,0,0,0,0,0,0,0,0,0,1.6052,1.6052,0,1.606,1.606,1.606,1.6082,1.6082,1.6083,1.6083,1.6089,1.6088,1.6088,0,0,0,0,0,0,0,0,0,0,0,0,0,1.6052,1.6052,1.6052,1.6052,1.6052,1.606,1.606,1.606,1.6082,1.6082,1.6083,1.6083,1.6089,1.6088,1.6088,0,0,0,0,0,0,0,0,0,0,0,0,0,1.6055,1.6052,1.6052,1.6064,1.6065,1.606,1.606,1.606,1.6081,1.6082,1.6083,1.6084,1.6089,1.6088,1.6088,1.6071,0,0,1.6087,1.6087,0,0,0,0,0,0,0,0,1.6055,1.6055,1.6062,1.6063,1.6065,1.6071,1.6062,1.6064,1.6081,1.6075,1.6083,1.6084,1.6082,1.6082,1.6082,1.6071,1.6072,1.6087,1.6086,1.6086,1.6086,0,0,0,0,0,0,0,1.6055,1.6055,1.6055,1.6062,1.6064,1.6068,1.6069,1.6062,1.6074,1.6076,1.6077,1.6078,1.6083,1.6082,1.6082,1.6072,1.6087,1.6086,1.6086,1.6086,1.6044,1.6043,0,0,0,0,0,0,1.6053,1.6054,1.6055,1.6055,1.6061,1.6067,1.6068,1.6068,1.6075,1.6076,1.6078,1.6079,1.6083,1.6083,1.6083,1.6061,1.6086,1.6086,1.6086,1.6045,1.6044,1.6043,0,0,0,0,0,0,1.6053,1.6053,1.6055,1.6055,1.6056,1.6066,1.6066,1.6068,1.6067,1.6076,1.6078,1.6075,1.6083,1.6083,1.6073,1.6061,1.6086,1.6085,1.6046,1.6045,1.6044,1.6019,0,0,0,0,0,0,1.6053,1.6053,1.6048,1.6055,1.6056,1.6046,1.6065,1.6067,1.6067,1.6069,1.6074,1.6076,1.6084,1.6074,1.6073,1.6061,1.6085,1.6047,1.6045,1.6044,1.6021,1.6017,1.6014,0,0,0,0,0,1.6053,1.6041,1.6047,1.6047,1.605,1.6046,1.6046,1.6056,1.6066,1.606,1.6065,1.6076,1.6063,1.6073,1.6072,1.606,1.6048,1.6046,1.6044,1.6022,1.6018,1.6014,0,0,0,0,0,0,1.6032,1.6042,1.605,1.604,1.6042,1.605,1.6042,1.6051,1.605,1.6052,1.6064,1.6065,1.6053,1.6056,1.6066,1.6042,1.6057,1.6055,1.6041,1.6036,1.6033,1.6032,1.6085,0,0,0,0,0,1.6026,1.6023,1.6032,1.6022,1.6023,1.6032,1.6031,1.6038,1.6041,1.6041,1.6046,1.6047,1.6043,1.604,1.6037,1.6021,1.6021,1.6013,1.6009,1.6006,1.6004,1.5992,1.5988,1.6037,1.6037,1.6037,0,0,1.6014,1.6019,1.6016,1.6018,1.602,1.6015,1.6033,1.6027,1.6023,1.604,1.6031,1.6034,1.6035,1.6022,1.6016,1.6024,1.599,1.6004,1.6001,1.6,1.599,1.5985,1.5981,1.6036,1.6036,1.6036,0,0,1.5989,1.5993,1.5985,1.5986,1.599,1.5996,1.5993,1.5999,1.6002,1.5993,1.6004,1.5999,1.5993,1.5992,1.5991,1.5963,1.5972,1.5962,1.5943,1.5932,1.5928,1.5924,1.5912,1.5908,1.596,1.596,1.596,0,1.5973,1.5967,1.5979,1.5972,1.5971,1.5986,1.5976,1.5977,1.5978,1.5977,1.5985,1.5976,1.5978,1.5963,1.5956,1.5956,1.5951,1.5961,1.5928,1.5924,1.5921,1.5909,1.5905,1.5958,1.5958,1.5959,1.5959,0,1.5946,1.5941,1.5934,1.5935,1.5933,1.5924,1.5933,1.593,1.5936,1.5941,1.5929,1.5933,1.5929,1.5926,1.5934,1.5911,1.5916,1.5926,1.5941,1.5915,1.5904,1.59,1.5956,1.5957,1.5957,1.5957,0,0,1.5909,1.5915,1.5912,1.5911,1.5915,1.5911,1.5901,1.5898,1.5894,1.5894,1.5885,1.5878,1.5887,1.5885,1.5892,1.5883,1.5857,1.5894,1.5894,1.5885,1.5829,1.582,1.5815,1.5863,1.5862,1.5862,1.5828,0,1.5884,1.587,1.5878,1.5862,1.5856,1.5869,1.5861,1.5861,1.5864,1.5859,1.5862,1.5856,1.5869,1.5868,1.5859,1.5862,1.5846,1.5865,1.5853,1.5852,1.585,1.581,1.5801,1.577,1.5825,1.5824,1.5823,0,1.5853,1.5851,1.5834,1.5836,1.5834,1.5826,1.5822,1.5817,1.5817,1.5819,1.5817,1.5825,1.5814,1.5829,1.5813,1.5826,1.5821,1.5821,1.582,1.5818,1.5835,1.5805,1.576,1.5755,1.5817,1.5818,1.5818,0,1.5825,1.5818,1.5806,1.5805,1.5808,1.5802,1.5802,1.5803,1.5799,1.5795,1.5792,1.5788,1.5784,1.5779,1.5785,1.5796,1.5766,1.5783,1.5766,1.5766,1.5759,1.5759,1.5711,1.5759,1.5759,1.5759,1.5759,0,1.5795,1.5783,1.5793,1.5786,1.5772,1.5781,1.5767,1.5769,1.5768,1.576,1.5771,1.5763,1.5772,1.5763,1.5768,1.5752,1.5751,1.5751,1.5752,1.5749,1.5749,1.5745,1.5747,1.5758,1.5758,1.5758,1.5759,0,1.5761,1.5768,1.5755,1.5758,1.5758,1.5747,1.5749,1.5741,1.5745,1.5733,1.5731,1.5736,1.5727,1.5732,1.5723,1.5725,1.5704,1.5709,1.5704,1.5704,1.5687,1.5687,1.5633,1.5625,1.568,1.568,1.5679,0,1.5741,1.5732,1.5733,1.5729,1.5728,1.5721,1.5717,1.5725,1.572,1.5717,1.5708,1.57,1.5694,1.5677,1.5679,1.5671,1.5674,1.5656,1.5673,1.5669,1.5671,1.5671,1.5669,1.5652,1.5651,1.5651,1.565,0,1.5704,1.5706,1.5701,1.5695,1.569,1.5686,1.5683,1.5678,1.5685,1.5679,1.5669,1.5664,1.5653,1.5644,1.5636,1.5635,1.5643,1.5645,1.564,1.5636,1.5633,1.5632,1.5692,1.5646,1.5646,1.5647,1.5647,1.5647,1.5675,1.5666,1.5665,1.5657,1.5655,1.5651,1.5643,1.5645,1.5637,1.5629,1.5634,1.5622,1.5618,1.5609,1.5606,1.5596,1.5603,1.5597,1.5595,1.5593,1.5589,1.5636,1.5595,1.5595,1.5595,1.5595,1.5595,0,1.5636,1.5635,1.5628,1.5623,1.5616,1.5624,1.562,1.5613,1.5603,1.5599,1.5592,1.5579,1.5569,1.5569,1.5559,1.555,1.5553,1.5547,1.5547,1.5546,1.5585,1.5588,1.5545,1.5545,1.5545,1.5545,1.5545,1.5545,1.5615,1.56,1.5602,1.5586,1.5585,1.5573,1.557,1.5565,1.5562,1.5547,1.5539,1.5539,1.5536,1.5525,1.5515,1.5516,1.551,1.5502,1.5503,1.5539,1.5544,1.5549,1.5552,1.5502,1.5502,1.5466,1.5465,1.5465]}]]